This demonstration page uses our WeatherBlox Daily Observations layout. Learn more.

Left ArrowRight Arrow

39.08367, -84.50855

Hourly Observations for December 16, 2015

Temp ( °F °C ) Dew Point ( °F °C ) Humidity (%) Winds ( mph kmh ) Pressure ( in mb ) Visibility ( mi km ) Precip ( " mm )
12:42 am 00:42 Clear with Mist and Fog 36 2 34 1 93 93 Calm 29.97 1015 2 3 0.00 0.00
12:53 am 00:53 Clear with Mist and Fog 35 1.7 35 1.7 100 100 Calm 29.97 1015 2 2 0.00 0.00
1:00 am 01:00 Mostly Cloudy with Fog 35 1.7 35 1.7 100 100 Calm 29.97 1015 1 1 0.00 0.00
1:12 am 01:12 Clear with Mist and Fog 36 2 36 2 100 100 Calm 29.97 1015 1 2 0.00 0.00
1:17 am 01:17 Clear with Mist and Fog 36 2.2 36 2.2 100 100 Calm 29.97 1015 3 5 0.00 0.00
1:31 am 01:31 Clear with Mist and Fog 35 1.7 35 1.7 100 100 Calm 29.97 1015 2 3 0.00 0.00
1:53 am 01:53 Clear with Mist and Fog 34 1.1 34 1.1 100 100 Calm 29.97 1015 2 3 0.00 0.00
2:04 am 02:04 Clear 34 1 34 1 100 100 Calm 29.97 1015 7 11 0.00 0.00
2:26 am 02:26 Clear with Mist and Fog 33 0.6 33 0.6 100 100 Calm 29.97 1015 2 2 0.00 0.00
2:39 am 02:39 Clear with Mist and Fog 34 1.1 34 1.1 100 100 Calm 29.97 1015 3 5 0.00 0.00
2:53 am 02:53 Clear with Mist and Fog 33 0.6 33 0.6 100 100 Calm 29.97 1015 4 6 0.00 0.00
2:56 am 02:56 Clear with Mist and Fog 32 0 32 0 100 100 Calm 29.97 1015 2 3 0.00 0.00
3:06 am 03:06 Clear with Fog 32 0 32 0 100 100 Calm 29.97 1015 1 1 0.00 0.00
3:26 am 03:26 Clear with Mist and Fog 34 1 34 1 100 100 Calm 29.97 1015 2 3 0.00 0.00
3:33 am 03:33 Clear with Mist and Fog 33 0.6 33 0.6 100 100 Calm 29.97 1015 1 1 0.00 0.00
3:53 am 03:53 Mostly Cloudy with Freezing Fog 31 -0.6 31 -0.6 100 100 Calm 29.96 1015 1 1 0.00 0.00
4:13 am 04:13 Mostly Cloudy with Fog 32 0 32 0 100 100 Calm 29.94 1014 0 0 0.00 0.00
4:23 am 04:23 Mostly Cloudy with Fog 32 0 32 0 100 100 Calm 29.94 1014 1 1 0.00 0.00
4:36 am 04:36 Mostly Cloudy with Freezing Fog 30 -1 30 -1 100 100 Calm 29.97 1015 0 0 0.00 0.00
4:53 am 04:53 Mostly Cloudy with Fog 33 0.6 33 0.6 100 100 Calm 29.95 1014 0 0 0.00 0.00
5:09 am 05:09 Mostly Cloudy with Freezing Fog 31 -0.6 31 -0.6 100 100 Calm 29.97 1015 1 1 0.00 0.00
5:53 am 05:53 Mostly Cloudy with Mist and Fog 31 -0.6 31 -0.6 100 100 Calm 29.94 1014 1 1 0.00 0.00
6:06 am 06:06 Mostly Cloudy with Freezing Fog 30 -1 30 -1 100 100 Calm 29.97 1015 0 0 0.00 0.00
6:53 am 06:53 Mostly Cloudy with Freezing Fog 31 -0.6 31 -0.6 100 100 Calm 29.94 1014 1 1 0.00 0.00
7:13 am 07:13 Mostly Cloudy with Freezing Fog 31 -0.6 31 -0.6 100 100 Calm 29.97 1015 0 0 0.00 0.00
7:53 am 07:53 Mostly Cloudy with Fog 32 0 32 0 100 100 SSE 3 6 29.96 1014 0 0 0.00 0.00
8:53 am 08:53 Mostly Cloudy with Fog 33 0.6 33 0.6 100 100 Calm 29.97 1015 5 8 0.00 0.00
9:13 am 09:13 Mostly Cloudy with Mist and Fog 36 2.2 36 2.2 100 100 Calm 29.94 1014 2 3 0.00 0.00
9:25 am 09:25 Partly Cloudy with Mist and Fog 37 2.8 37 2.8 100 100 Calm 29.94 1014 5 8 0.00 0.00
9:53 am 09:53 Partly Cloudy 39 3.9 39 3.9 100 100 Calm 29.95 1014 10 16 0.00 0.00
10:53 am 10:53 Sunny 46 7.8 43 6.1 89 89 WSW 5 7 29.93 1013 10 16 0.00 0.00
11:53 am 11:53 Sunny 52 11.1 45 7.2 77 77 S 7 11 29.88 1012 10 16 0.00 0.00
12:53 pm 12:53 Sunny 56 13.3 47 8.3 72 72 SSW 5 7 29.85 1011 10 16 0.00 0.00
1:53 pm 13:53 Sunny 58 14.4 47 8.3 67 67 SSW 9 15 29.83 1010 10 16 0.00 0.00
2:53 pm 14:53 Sunny 61 16.1 48 8.9 63 63 SW 6 9 29.82 1010 10 16 0.00 0.00
3:53 pm 15:53 Sunny 62 16.7 45 7.2 54 54 S 12 19 29.74 1007 10 16 0.00 0.00
4:53 pm 16:53 Mostly Cloudy 61 16.1 46 7.8 58 58 S 9 15 29.76 1008 10 16 0.00 0.00
5:53 pm 17:53 Mostly Cloudy 60 15.6 44 6.7 56 56 SSW 10 17 29.76 1008 10 16 0.00 0.00
6:53 pm 18:53 Cloudy 59 15 45 7.2 60 60 SSW 8 13 29.75 1007 10 16 0.00 0.00
7:53 pm 19:53 Mostly Cloudy 59 15 46 7.8 62 62 S 8 13 29.75 1008 10 16 0.00 0.00
8:53 pm 20:53 Cloudy 57 13.9 46 7.8 67 67 SW 7 11 29.75 1008 10 16 0.00 0.00
9:53 pm 21:53 Cloudy with Light Rain 60 15.6 46 7.8 60 60 SW 15 24 29.76 1008 10 16 0.00 0.03
10:53 pm 22:53 Cloudy 58 14.4 50 10 75 75 SW 10 17 29.75 1008 10 16 0.00 0.03
11:53 pm 23:53 Cloudy 56 13.3 50 10 81 81 SSW 13 20 29.76 1008 10 16 0.00 0.03

Powered by AerisWeather